Time,TemperatureF,DewpointF,PressureIn,WindDirection,WindDirectionDegrees,WindSpeedMPH,WindSpeedGustMPH,Humidity,HourlyPrecipIn,Conditions,Clouds,dailyrainin,SoftwareType,DateUTC
2013-05-26 00:01:00,60.1,44.8,30.22,SSE,158,0.0,0.0,57,0.00,,,0.00,WUHU216HW,2013-05-26 04:01:00,
2013-05-26 00:06:00,60.1,44.8,30.22,SSE,158,0.0,0.0,57,0.00,,,0.00,WUHU216HW,2013-05-26 04:06:00,
2013-05-26 00:11:00,60.3,45.0,30.23,SE,135,0.0,0.0,57,0.00,,,0.00,WUHU216HW,2013-05-26 04:11:00,
2013-05-26 00:16:00,60.3,45.0,30.23,SE,135,0.0,0.0,57,0.00,,,0.00,WUHU216HW,2013-05-26 04:16:00,
2013-05-26 00:21:00,60.3,44.6,30.23,SE,135,0.0,0.0,56,0.00,,,0.00,WUHU216HW,2013-05-26 04:21:00,
2013-05-26 00:26:00,60.3,45.0,30.23,SE,135,0.0,0.0,57,0.00,,,0.00,WUHU216HW,2013-05-26 04:26:00,
2013-05-26 00:31:00,60.1,44.8,30.23,SE,135,0.0,0.0,57,0.00,,,0.00,WUHU216HW,2013-05-26 04:31:00,
2013-05-26 00:36:00,60.1,44.8,30.23,SE,135,0.0,0.0,57,0.00,,,0.00,WUHU216HW,2013-05-26 04:36:00,
2013-05-26 00:41:00,60.1,44.8,30.24,SE,135,0.0,0.0,57,0.00,,,0.00,WUHU216HW,2013-05-26 04:41:00,
2013-05-26 00:46:00,60.1,44.8,30.23,SE,135,0.0,0.0,57,0.00,,,0.00,WUHU216HW,2013-05-26 04:46:00,
2013-05-26 00:51:00,60.1,44.8,30.23,SE,135,0.0,0.0,57,0.00,,,0.00,WUHU216HW,2013-05-26 04:51:00,
2013-05-26 00:56:00,60.1,45.3,30.23,SE,135,0.0,0.0,58,0.00,,,0.00,WUHU216HW,2013-05-26 04:56:00,
2013-05-26 01:01:00,60.1,45.3,30.23,SE,135,0.0,0.0,58,0.00,,,0.00,WUHU216HW,2013-05-26 05:01:00,
2013-05-26 01:06:00,59.9,45.1,30.23,SE,135,0.0,0.0,58,0.00,,,0.00,WUHU216HW,2013-05-26 05:06:00,
2013-05-26 01:11:00,59.9,45.1,30.23,SE,135,0.0,0.0,58,0.00,,,0.00,WUHU216HW,2013-05-26 05:11:00,
2013-05-26 01:16:00,59.9,45.6,30.24,SE,135,0.0,0.0,59,0.00,,,0.00,WUHU216HW,2013-05-26 05:16:00,
2013-05-26 01:21:00,59.8,44.9,30.24,SE,135,0.0,0.0,58,0.00,,,0.00,WUHU216HW,2013-05-26 05:21:00,
2013-05-26 01:26:00,59.6,44.7,30.24,SE,135,0.0,0.0,58,0.00,,,0.00,WUHU216HW,2013-05-26 05:26:00,
2013-05-26 01:31:00,59.6,44.7,30.24,SE,135,0.0,0.0,58,0.00,,,0.00,WUHU216HW,2013-05-26 05:31:00,
2013-05-26 01:36:00,59.4,44.7,30.24,SE,135,0.0,0.0,58,0.00,,,0.00,WUHU216HW,2013-05-26 05:36:00,
2013-05-26 01:41:00,59.4,45.1,30.24,SE,135,0.0,0.0,59,0.00,,,0.00,WUHU216HW,2013-05-26 05:41:00,
2013-05-26 01:46:00,59.4,45.1,30.23,SE,135,0.0,0.0,59,0.00,,,0.00,WUHU216HW,2013-05-26 05:46:00,
2013-05-26 01:51:00,59.4,46.0,30.23,SE,135,0.0,0.0,61,0.00,,,0.00,WUHU216HW,2013-05-26 05:51:00,
2013-05-26 01:56:00,59.2,45.8,30.23,SE,135,0.0,0.0,61,0.00,,,0.00,WUHU216HW,2013-05-26 05:56:00,
2013-05-26 02:01:00,59.0,45.2,30.23,SE,135,0.0,0.0,60,0.00,,,0.00,WUHU216HW,2013-05-26 06:01:00,
2013-05-26 02:06:00,59.0,45.2,30.24,SE,135,0.0,0.0,60,0.00,,,0.00,WUHU216HW,2013-05-26 06:06:00,
2013-05-26 02:11:00,59.0,44.7,30.23,SE,135,0.0,0.0,59,0.00,,,0.00,WUHU216HW,2013-05-26 06:11:00,
2013-05-26 02:16:00,59.0,44.7,30.23,SE,135,0.0,0.0,59,0.00,,,0.00,WUHU216HW,2013-05-26 06:16:00,
2013-05-26 02:21:00,59.0,44.7,30.23,SE,135,0.0,0.0,59,0.00,,,0.00,WUHU216HW,2013-05-26 06:21:00,
2013-05-26 02:26:00,59.0,45.6,30.22,SE,135,0.0,0.0,61,0.00,,,0.00,WUHU216HW,2013-05-26 06:26:00,
2013-05-26 02:31:00,59.0,45.2,30.22,SE,135,0.0,0.0,60,0.00,,,0.00,WUHU216HW,2013-05-26 06:31:00,
2013-05-26 02:36:00,58.9,45.5,30.22,SE,135,0.0,0.0,61,0.00,,,0.00,WUHU216HW,2013-05-26 06:36:00,
2013-05-26 02:41:00,58.7,44.8,30.21,SE,135,0.0,0.0,60,0.00,,,0.00,WUHU216HW,2013-05-26 06:41:00,
2013-05-26 02:46:00,58.7,44.8,30.22,SE,135,0.0,0.2,60,0.00,,,0.00,WUHU216HW,2013-05-26 06:46:00,
2013-05-26 02:51:00,58.7,45.3,30.22,SE,135,0.0,0.2,61,0.00,,,0.00,WUHU216HW,2013-05-26 06:51:00,
2013-05-26 02:56:00,58.7,44.4,30.22,SE,135,0.0,0.0,59,0.00,,,0.00,WUHU216HW,2013-05-26 06:56:00,
2013-05-26 03:01:00,58.7,44.4,30.22,SE,135,0.0,0.0,59,0.00,,,0.00,WUHU216HW,2013-05-26 07:01:00,
2013-05-26 03:06:00,58.7,44.8,30.23,ESE,113,0.0,0.2,60,0.00,,,0.00,WUHU216HW,2013-05-26 07:06:00,
2013-05-26 03:11:00,58.7,45.3,30.22,ESE,113,0.2,0.2,61,0.00,,,0.00,WUHU216HW,2013-05-26 07:11:00,
2013-05-26 03:16:00,58.7,44.8,30.22,NE,45,0.0,0.2,60,0.00,,,0.00,WUHU216HW,2013-05-26 07:16:00,
2013-05-26 03:21:00,58.7,44.8,30.22,NE,45,0.0,0.0,60,0.00,,,0.00,WUHU216HW,2013-05-26 07:21:00,
2013-05-26 03:26:00,58.7,44.8,30.23,NE,45,0.0,0.0,60,0.00,,,0.00,WUHU216HW,2013-05-26 07:26:00,
2013-05-26 03:31:00,58.7,44.8,30.23,NE,45,0.0,0.0,60,0.00,,,0.00,WUHU216HW,2013-05-26 07:31:00,
2013-05-26 03:36:00,58.7,45.3,30.24,NNE,23,0.0,0.4,61,0.00,,,0.00,WUHU216HW,2013-05-26 07:36:00,
2013-05-26 03:41:00,58.5,44.7,30.24,NNE,23,0.0,0.4,60,0.00,,,0.00,WUHU216HW,2013-05-26 07:41:00,
2013-05-26 03:46:00,58.5,44.7,30.24,NNE,23,0.0,0.0,60,0.00,,,0.00,WUHU216HW,2013-05-26 07:46:00,
2013-05-26 03:51:00,58.5,44.7,30.24,NNE,23,0.0,0.0,60,0.00,,,0.00,WUHU216HW,2013-05-26 07:51:00,
2013-05-26 03:56:00,58.5,44.7,30.24,NNE,23,0.0,0.0,60,0.00,,,0.00,WUHU216HW,2013-05-26 07:56:00,
2013-05-26 04:01:00,58.3,45.4,30.24,NNE,23,0.0,0.0,62,0.00,,,0.00,WUHU216HW,2013-05-26 08:01:00,
2013-05-26 04:06:00,58.3,44.9,30.25,NNE,23,0.0,0.0,61,0.00,,,0.00,WUHU216HW,2013-05-26 08:06:00,
2013-05-26 04:11:00,58.3,44.9,30.25,NNE,23,0.0,0.0,61,0.00,,,0.00,WUHU216HW,2013-05-26 08:11:00,
2013-05-26 04:16:00,58.3,44.9,30.25,NNE,23,0.0,0.0,61,0.00,,,0.00,WUHU216HW,2013-05-26 08:16:00,
2013-05-26 04:21:00,58.3,44.9,30.24,West,270,0.0,0.0,61,0.00,,,0.00,WUHU216HW,2013-05-26 08:21:00,
2013-05-26 04:26:00,58.1,45.2,30.24,SW,225,0.0,0.9,62,0.00,,,0.00,WUHU216HW,2013-05-26 08:26:00,
2013-05-26 04:31:00,58.0,45.0,30.24,SW,225,0.0,0.9,62,0.00,,,0.00,WUHU216HW,2013-05-26 08:31:00,
2013-05-26 04:36:00,57.8,45.3,30.24,SW,225,0.0,0.0,63,0.00,,,0.00,WUHU216HW,2013-05-26 08:36:00,
2013-05-26 04:41:00,57.6,45.1,30.24,SW,225,0.0,0.0,63,0.00,,,0.00,WUHU216HW,2013-05-26 08:41:00,
2013-05-26 04:46:00,57.2,45.2,30.23,SW,225,0.0,0.0,64,0.00,,,0.00,WUHU216HW,2013-05-26 08:46:00,
2013-05-26 04:52:00,57.1,45.4,30.23,ESE,113,0.0,0.0,65,0.00,,,0.00,WUHU216HW,2013-05-26 08:52:00,
2013-05-26 04:57:00,56.9,45.6,30.24,East,90,0.0,0.0,66,0.00,,,0.00,WUHU216HW,2013-05-26 08:57:00,
2013-05-26 05:02:00,56.5,45.6,30.24,East,90,0.0,0.0,67,0.00,,,0.00,WUHU216HW,2013-05-26 09:02:00,
2013-05-26 05:07:00,56.2,45.7,30.24,East,90,0.0,0.0,68,0.00,,,0.00,WUHU216HW,2013-05-26 09:07:00,
2013-05-26 05:12:00,56.0,46.0,30.24,East,90,0.0,0.0,69,0.00,,,0.00,WUHU216HW,2013-05-26 09:12:00,
2013-05-26 05:17:00,55.8,46.3,30.24,East,90,0.0,0.0,70,0.00,,,0.00,WUHU216HW,2013-05-26 09:17:00,
2013-05-26 05:22:00,55.4,45.9,30.24,East,90,0.0,0.0,70,0.00,,,0.00,WUHU216HW,2013-05-26 09:22:00,
2013-05-26 05:27:00,55.4,45.9,30.25,East,90,0.0,0.0,70,0.00,,,0.00,WUHU216HW,2013-05-26 09:27:00,
2013-05-26 05:32:00,55.4,45.9,30.25,East,90,0.0,0.0,70,0.00,,,0.00,WUHU216HW,2013-05-26 09:32:00,
2013-05-26 05:37:00,55.4,45.9,30.25,East,90,0.0,0.0,70,0.00,,,0.00,WUHU216HW,2013-05-26 09:37:00,
2013-05-26 05:42:00,55.4,46.3,30.25,East,90,0.0,0.0,71,0.00,,,0.00,WUHU216HW,2013-05-26 09:42:00,
2013-05-26 05:47:00,55.4,46.3,30.25,East,90,0.0,0.0,71,0.00,,,0.00,WUHU216HW,2013-05-26 09:47:00,
2013-05-26 05:52:00,55.4,46.3,30.25,East,90,0.0,0.0,71,0.00,,,0.00,WUHU216HW,2013-05-26 09:52:00,
2013-05-26 05:57:00,55.4,46.3,30.25,East,90,0.0,0.0,71,0.00,,,0.00,WUHU216HW,2013-05-26 09:57:00,
2013-05-26 06:02:00,55.4,46.3,30.26,East,90,0.0,0.0,71,0.00,,,0.00,WUHU216HW,2013-05-26 10:02:00,
2013-05-26 06:07:00,55.4,46.3,30.26,East,90,0.0,0.0,71,0.00,,,0.00,WUHU216HW,2013-05-26 10:07:00,
2013-05-26 06:12:00,55.6,46.5,30.27,East,90,0.0,0.0,71,0.00,,,0.00,WUHU216HW,2013-05-26 10:12:00,
2013-05-26 06:18:00,55.6,46.5,30.27,East,90,0.0,0.0,71,0.00,,,0.00,WUHU216HW,2013-05-26 10:18:00,
2013-05-26 06:23:00,55.6,46.5,30.27,East,90,0.0,0.0,71,0.00,,,0.00,WUHU216HW,2013-05-26 10:23:00,
2013-05-26 06:28:00,55.8,46.5,30.28,East,90,0.0,0.0,71,0.00,,,0.00,WUHU216HW,2013-05-26 10:28:00,
2013-05-26 06:33:00,55.8,46.5,30.28,East,90,0.0,0.0,71,0.00,,,0.00,WUHU216HW,2013-05-26 10:33:00,
2013-05-26 06:38:00,55.8,46.9,30.29,ENE,68,0.0,1.1,72,0.00,,,0.00,WUHU216HW,2013-05-26 10:38:00,
2013-05-26 06:43:00,55.8,46.9,30.29,ENE,68,0.0,1.1,72,0.00,,,0.00,WUHU216HW,2013-05-26 10:43:00,
2013-05-26 06:48:00,55.8,46.9,30.27,East,90,0.0,0.0,72,0.00,,,0.00,WUHU216HW,2013-05-26 10:48:00,
2013-05-26 06:53:00,55.8,46.9,30.27,East,90,0.0,0.0,72,0.00,,,0.00,WUHU216HW,2013-05-26 10:53:00,
2013-05-26 06:58:00,55.8,46.9,30.28,NNE,23,0.0,0.0,72,0.00,,,0.00,WUHU216HW,2013-05-26 10:58:00,
2013-05-26 07:03:00,55.8,46.9,30.28,NNE,23,0.0,0.0,72,0.00,,,0.00,WUHU216HW,2013-05-26 11:03:00,
2013-05-26 07:08:00,55.8,47.3,30.28,NNE,23,0.0,0.4,73,0.00,,,0.00,WUHU216HW,2013-05-26 11:08:00,
2013-05-26 07:13:00,55.8,46.9,30.28,NNE,23,0.0,0.4,72,0.00,,,0.00,WUHU216HW,2013-05-26 11:13:00,
2013-05-26 07:18:00,56.0,47.4,30.28,NNE,23,0.0,0.0,73,0.00,,,0.00,WUHU216HW,2013-05-26 11:18:00,
2013-05-26 07:23:00,55.8,47.3,30.28,NNE,23,0.0,0.0,73,0.00,,,0.00,WUHU216HW,2013-05-26 11:23:00,
2013-05-26 07:28:00,56.0,47.4,30.27,NNE,23,0.0,0.0,73,0.00,,,0.00,WUHU216HW,2013-05-26 11:28:00,
2013-05-26 07:33:00,56.0,47.8,30.27,South,180,0.0,0.4,74,0.00,,,0.00,WUHU216HW,2013-05-26 11:33:00,
2013-05-26 07:38:00,56.0,47.8,30.27,South,180,0.0,0.4,74,0.00,,,0.00,WUHU216HW,2013-05-26 11:38:00,
2013-05-26 07:43:00,56.2,48.3,30.28,South,180,0.0,0.0,75,0.00,,,0.00,WUHU216HW,2013-05-26 11:43:00,
2013-05-26 07:48:00,56.0,48.2,30.28,South,180,0.0,0.0,75,0.00,,,0.00,WUHU216HW,2013-05-26 11:48:00,
2013-05-26 07:53:00,56.2,48.3,30.29,South,180,0.0,0.0,75,0.00,,,0.00,WUHU216HW,2013-05-26 11:53:00,
2013-05-26 07:58:00,56.2,48.3,30.28,South,180,0.0,0.0,75,0.00,,,0.00,WUHU216HW,2013-05-26 11:58:00,
2013-05-26 08:03:00,56.2,48.3,30.28,South,180,0.0,0.0,75,0.00,,,0.00,WUHU216HW,2013-05-26 12:03:00,
2013-05-26 08:08:00,56.2,48.6,30.28,South,180,0.0,0.0,76,0.00,,,0.00,WUHU216HW,2013-05-26 12:08:00,
2013-05-26 08:13:00,56.3,48.8,30.28,South,180,0.0,0.0,76,0.00,,,0.00,WUHU216HW,2013-05-26 12:13:00,
2013-05-26 08:18:00,56.5,49.0,30.29,South,180,0.0,0.9,76,0.00,,,0.00,WUHU216HW,2013-05-26 12:18:00,
2013-05-26 08:23:00,56.5,49.0,30.29,South,180,0.0,0.9,76,0.00,,,0.00,WUHU216HW,2013-05-26 12:23:00,
2013-05-26 08:28:00,56.7,49.1,30.29,South,180,0.0,0.0,76,0.00,,,0.00,WUHU216HW,2013-05-26 12:28:00,
2013-05-26 08:33:00,56.9,49.3,30.29,South,180,0.0,0.0,76,0.00,,,0.00,WUHU216HW,2013-05-26 12:33:00,
2013-05-26 08:38:00,57.1,49.1,30.29,South,180,0.0,0.0,75,0.00,,,0.00,WUHU216HW,2013-05-26 12:38:00,
2013-05-26 08:43:00,57.2,49.7,30.29,South,180,0.0,0.0,76,0.00,,,0.00,WUHU216HW,2013-05-26 12:43:00,
2013-05-26 08:48:00,57.2,49.7,30.28,South,180,0.0,0.0,76,0.00,,,0.00,WUHU216HW,2013-05-26 12:48:00,
2013-05-26 08:53:00,57.4,49.9,30.29,South,180,0.0,0.0,76,0.00,,,0.00,WUHU216HW,2013-05-26 12:53:00,
2013-05-26 08:58:00,57.6,50.0,30.29,South,180,0.0,0.0,76,0.00,,,0.00,WUHU216HW,2013-05-26 12:58:00,
2013-05-26 09:03:00,57.6,50.0,30.29,South,180,0.0,0.0,76,0.00,,,0.00,WUHU216HW,2013-05-26 13:03:00,
2013-05-26 09:08:00,58.0,50.4,30.29,South,180,0.0,0.0,76,0.00,,,0.00,WUHU216HW,2013-05-26 13:08:00,
2013-05-26 09:13:00,58.0,50.4,30.29,South,180,0.0,0.0,76,0.00,,,0.00,WUHU216HW,2013-05-26 13:13:00,
2013-05-26 09:18:00,58.3,50.8,30.29,NW,315,0.0,0.4,76,0.00,,,0.00,WUHU216HW,2013-05-26 13:18:00,
2013-05-26 09:23:00,58.5,50.2,30.29,NW,315,0.0,0.4,74,0.00,,,0.00,WUHU216HW,2013-05-26 13:23:00,
2013-05-26 09:28:00,58.7,50.4,30.29,NNE,23,0.2,0.4,74,0.00,,,0.00,WUHU216HW,2013-05-26 13:28:00,
2013-05-26 09:33:00,58.9,50.2,30.30,NE,45,0.0,0.9,73,0.00,,,0.00,WUHU216HW,2013-05-26 13:33:00,
2013-05-26 09:38:00,59.2,50.6,30.30,North,0,0.0,0.9,73,0.00,,,0.00,WUHU216HW,2013-05-26 13:38:00,
2013-05-26 09:43:00,59.4,50.8,30.30,SW,225,0.0,0.9,73,0.00,,,0.00,WUHU216HW,2013-05-26 13:43:00,
2013-05-26 09:48:00,59.4,50.4,30.29,SE,135,0.0,1.1,72,0.00,,,0.00,WUHU216HW,2013-05-26 13:48:00,
2013-05-26 09:53:00,59.6,50.2,30.29,SSE,158,0.0,1.1,71,0.00,,,0.00,WUHU216HW,2013-05-26 13:53:00,
2013-05-26 09:58:00,59.9,50.9,30.29,WSW,248,0.0,0.2,72,0.00,,,0.00,WUHU216HW,2013-05-26 13:58:00,
2013-05-26 10:03:00,60.1,51.1,30.29,SSW,203,1.6,1.6,72,0.00,,,0.00,WUHU216HW,2013-05-26 14:03:00,
2013-05-26 10:08:00,60.1,50.8,30.29,South,180,0.0,1.6,71,0.00,,,0.00,WUHU216HW,2013-05-26 14:08:00,
2013-05-26 10:13:00,60.5,51.5,30.29,SW,225,0.2,1.6,72,0.00,,,0.00,WUHU216HW,2013-05-26 14:13:00,
2013-05-26 10:18:00,60.7,51.7,30.29,SW,225,2.5,2.5,72,0.00,,,0.00,WUHU216HW,2013-05-26 14:18:00,
2013-05-26 10:23:00,60.8,50.7,30.29,NE,45,0.0,2.5,69,0.00,,,0.00,WUHU216HW,2013-05-26 14:23:00,
2013-05-26 10:28:00,61.2,50.6,30.30,North,0,0.0,2.5,68,0.00,,,0.00,WUHU216HW,2013-05-26 14:28:00,
2013-05-26 10:33:00,61.6,50.9,30.29,South,180,0.0,0.7,68,0.00,,,0.00,WUHU216HW,2013-05-26 14:33:00,
2013-05-26 10:38:00,61.9,50.4,30.30,SE,135,0.0,0.9,66,0.00,,,0.00,WUHU216HW,2013-05-26 14:38:00,
2013-05-26 10:43:00,62.1,50.2,30.30,NE,45,1.1,1.1,65,0.00,,,0.00,WUHU216HW,2013-05-26 14:43:00,
2013-05-26 10:48:00,62.5,49.7,30.30,SW,225,0.7,1.3,63,0.00,,,0.00,WUHU216HW,2013-05-26 14:48:00,
2013-05-26 10:53:00,62.6,49.1,30.30,WSW,248,0.0,1.3,61,0.00,,,0.00,WUHU216HW,2013-05-26 14:53:00,
2013-05-26 10:58:00,63.0,48.4,30.30,East,90,0.0,1.3,59,0.00,,,0.00,WUHU216HW,2013-05-26 14:58:00,
2013-05-26 11:03:00,63.4,48.8,30.30,South,180,0.0,0.9,59,0.00,,,0.00,WUHU216HW,2013-05-26 15:03:00,
2013-05-26 11:08:00,63.9,48.8,30.30,West,270,0.7,0.7,58,0.00,,,0.00,WUHU216HW,2013-05-26 15:08:00,
2013-05-26 11:13:00,64.1,49.0,30.30,NNW,338,0.7,2.0,58,0.00,,,0.00,WUHU216HW,2013-05-26 15:13:00,
2013-05-26 11:18:00,63.9,48.2,30.29,WNW,293,0.7,2.2,57,0.00,,,0.00,WUHU216HW,2013-05-26 15:18:00,
2013-05-26 11:23:00,63.9,48.2,30.30,WNW,293,0.9,2.2,57,0.00,,,0.00,WUHU216HW,2013-05-26 15:23:00,
2013-05-26 11:28:00,64.1,47.4,30.30,NNW,338,0.0,1.8,55,0.00,,,0.00,WUHU216HW,2013-05-26 15:28:00,
2013-05-26 11:33:00,64.4,47.4,30.30,East,90,0.9,1.6,54,0.00,,,0.00,WUHU216HW,2013-05-26 15:33:00,
2013-05-26 11:38:00,64.8,48.2,30.30,WSW,248,0.7,1.6,55,0.00,,,0.00,WUHU216HW,2013-05-26 15:38:00,
2013-05-26 11:43:00,65.3,49.1,30.30,North,0,0.0,1.8,56,0.00,,,0.00,WUHU216HW,2013-05-26 15:43:00,
2013-05-26 11:48:00,65.5,47.9,30.30,ENE,68,0.0,1.8,53,0.00,,,0.00,WUHU216HW,2013-05-26 15:48:00,
2013-05-26 11:53:00,65.5,48.4,30.30,North,0,0.7,1.6,54,0.00,,,0.00,WUHU216HW,2013-05-26 15:53:00,
2013-05-26 11:58:00,65.5,48.9,30.30,SE,135,0.7,1.8,55,0.00,,,0.00,WUHU216HW,2013-05-26 15:58:00,
2013-05-26 12:03:00,65.9,48.8,30.30,North,0,0.2,1.8,54,0.00,,,0.00,WUHU216HW,2013-05-26 16:03:00,
2013-05-26 12:08:00,66.1,49.4,30.29,NNE,23,2.0,2.0,55,0.00,,,0.00,WUHU216HW,2013-05-26 16:08:00,
2013-05-26 12:13:00,66.4,49.8,30.29,NW,315,0.9,2.0,55,0.00,,,0.00,WUHU216HW,2013-05-26 16:13:00,
2013-05-26 12:18:00,66.6,50.9,30.30,SW,225,0.4,2.0,57,0.00,,,0.00,WUHU216HW,2013-05-26 16:18:00,
2013-05-26 12:23:00,66.6,50.4,30.29,SW,225,0.2,1.8,56,0.00,,,0.00,WUHU216HW,2013-05-26 16:23:00,
2013-05-26 12:28:00,66.8,50.0,30.30,ESE,113,0.4,1.8,55,0.00,,,0.00,WUHU216HW,2013-05-26 16:28:00,
2013-05-26 12:33:00,67.0,49.8,30.29,North,0,0.9,1.8,54,0.00,,,0.00,WUHU216HW,2013-05-26 16:33:00,
2013-05-26 12:38:00,67.1,50.4,30.29,West,270,1.3,1.3,55,0.00,,,0.00,WUHU216HW,2013-05-26 16:38:00,
2013-05-26 12:43:00,67.3,50.6,30.29,SE,135,0.7,2.0,55,0.00,,,0.00,WUHU216HW,2013-05-26 16:43:00,
2013-05-26 12:48:00,67.3,50.6,30.29,WSW,248,0.0,2.0,55,0.00,,,0.00,WUHU216HW,2013-05-26 16:48:00,
2013-05-26 12:53:00,67.5,51.7,30.29,WSW,248,1.1,1.3,57,0.00,,,0.00,WUHU216HW,2013-05-26 16:53:00,
2013-05-26 12:58:00,67.7,51.8,30.29,WNW,293,0.2,1.8,57,0.00,,,0.00,WUHU216HW,2013-05-26 16:58:00,
2013-05-26 13:03:00,67.5,51.2,30.29,WSW,248,0.0,1.8,56,0.00,,,0.00,WUHU216HW,2013-05-26 17:03:00,
2013-05-26 13:08:00,67.7,51.4,30.29,NE,45,1.1,1.8,56,0.00,,,0.00,WUHU216HW,2013-05-26 17:08:00,
2013-05-26 13:13:00,67.9,51.6,30.29,NNE,23,0.0,1.8,56,0.00,,,0.00,WUHU216HW,2013-05-26 17:13:00,
2013-05-26 13:18:00,67.9,51.6,30.28,WNW,293,0.7,1.1,56,0.00,,,0.00,WUHU216HW,2013-05-26 17:18:00,
2013-05-26 13:23:00,68.0,52.2,30.28,NNW,338,0.0,1.1,57,0.00,,,0.00,WUHU216HW,2013-05-26 17:23:00,
2013-05-26 13:28:00,68.0,51.7,30.28,NE,45,0.4,1.1,56,0.00,,,0.00,WUHU216HW,2013-05-26 17:28:00,
2013-05-26 13:33:00,68.2,51.4,30.28,ESE,113,0.4,1.8,55,0.00,,,0.00,WUHU216HW,2013-05-26 17:33:00,
2013-05-26 13:38:00,68.4,51.0,30.27,NNE,23,0.4,1.8,54,0.00,,,0.00,WUHU216HW,2013-05-26 17:38:00,
2013-05-26 13:43:00,68.4,51.0,30.27,ENE,68,0.0,1.6,54,0.00,,,0.00,WUHU216HW,2013-05-26 17:43:00,
2013-05-26 13:48:00,68.6,51.8,30.26,SW,225,0.4,1.6,55,0.00,,,0.00,WUHU216HW,2013-05-26 17:48:00,
2013-05-26 13:53:00,68.8,52.4,30.26,WNW,293,0.9,1.3,56,0.00,,,0.00,WUHU216HW,2013-05-26 17:53:00,
2013-05-26 13:58:00,68.8,52.9,30.26,North,0,0.2,1.6,57,0.00,,,0.00,WUHU216HW,2013-05-26 17:58:00,
2013-05-26 14:03:00,68.9,52.0,30.26,West,270,0.7,1.6,55,0.00,,,0.00,WUHU216HW,2013-05-26 18:03:00,
2013-05-26 14:08:00,69.3,51.9,30.26,SSE,158,0.4,1.1,54,0.00,,,0.00,WUHU216HW,2013-05-26 18:08:00,
2013-05-26 14:13:00,69.5,52.1,30.26,North,0,0.2,1.3,54,0.00,,,0.00,WUHU216HW,2013-05-26 18:13:00,
2013-05-26 14:18:00,69.7,52.3,30.26,WNW,293,1.1,1.3,54,0.00,,,0.00,WUHU216HW,2013-05-26 18:18:00,
2013-05-26 14:23:00,70.0,52.1,30.25,NNW,338,0.0,1.3,53,0.00,,,0.00,WUHU216HW,2013-05-26 18:23:00,
2013-05-26 14:28:00,70.2,52.7,30.25,North,0,0.2,1.3,54,0.00,,,0.00,WUHU216HW,2013-05-26 18:28:00,
2013-05-26 14:33:00,70.4,52.4,30.25,SW,225,1.8,2.5,53,0.00,,,0.00,WUHU216HW,2013-05-26 18:33:00,
2013-05-26 14:38:00,70.6,52.0,30.25,East,90,0.9,2.5,52,0.00,,,0.00,WUHU216HW,2013-05-26 18:38:00,
2013-05-26 14:43:00,70.7,51.8,30.25,North,0,0.0,1.8,51,0.00,,,0.00,WUHU216HW,2013-05-26 18:43:00,
2013-05-26 14:48:00,70.9,51.8,30.25,North,0,0.2,1.8,51,0.00,,,0.00,WUHU216HW,2013-05-26 18:48:00,
2013-05-26 14:53:00,70.9,50.8,30.25,SE,135,0.2,1.8,49,0.00,,,0.00,WUHU216HW,2013-05-26 18:53:00,
2013-05-26 14:58:00,70.9,51.4,30.25,West,270,1.1,1.8,50,0.00,,,0.00,WUHU216HW,2013-05-26 18:58:00,
2013-05-26 15:03:00,71.1,52.0,30.25,NNW,338,0.0,1.8,51,0.00,,,0.00,WUHU216HW,2013-05-26 19:03:00,
2013-05-26 15:08:00,71.3,51.7,30.25,NW,315,0.4,2.0,50,0.00,,,0.00,WUHU216HW,2013-05-26 19:08:00,
2013-05-26 15:13:00,71.3,51.7,30.25,North,0,0.2,2.2,50,0.00,,,0.00,WUHU216HW,2013-05-26 19:13:00,
2013-05-26 15:18:00,71.6,52.0,30.25,West,270,1.1,2.7,50,0.00,,,0.00,WUHU216HW,2013-05-26 19:18:00,
2013-05-26 15:23:00,71.8,51.0,30.24,SW,225,0.0,3.1,48,0.00,,,0.00,WUHU216HW,2013-05-26 19:23:00,
2013-05-26 15:28:00,72.0,51.1,30.24,NE,45,0.4,3.1,48,0.00,,,0.00,WUHU216HW,2013-05-26 19:28:00,
2013-05-26 15:33:00,72.4,51.5,30.24,NNW,338,1.1,2.2,48,0.00,,,0.00,WUHU216HW,2013-05-26 19:33:00,
2013-05-26 15:38:00,72.5,51.7,30.24,NNW,338,0.0,1.1,48,0.00,,,0.00,WUHU216HW,2013-05-26 19:38:00,
2013-05-26 15:43:00,72.9,51.9,30.24,North,0,0.0,1.1,48,0.00,,,0.00,WUHU216HW,2013-05-26 19:43:00,
2013-05-26 15:48:00,73.1,51.6,30.24,ESE,113,0.0,1.6,47,0.00,,,0.00,WUHU216HW,2013-05-26 19:48:00,
2013-05-26 15:53:00,73.1,51.6,30.24,NW,315,1.8,2.7,47,0.00,,,0.00,WUHU216HW,2013-05-26 19:53:00,
2013-05-26 15:58:00,73.3,52.9,30.24,ESE,113,2.0,2.7,49,0.00,,,0.00,WUHU216HW,2013-05-26 19:58:00,
2013-05-26 16:03:00,73.8,52.8,30.24,North,0,0.4,2.0,48,0.00,,,0.00,WUHU216HW,2013-05-26 20:03:00,
2013-05-26 16:08:00,74.3,53.4,30.24,SW,225,0.4,2.0,48,0.00,,,0.00,WUHU216HW,2013-05-26 20:08:00,
2013-05-26 16:13:00,74.3,52.1,30.24,NW,315,1.8,2.5,46,0.00,,,0.00,WUHU216HW,2013-05-26 20:13:00,
2013-05-26 16:18:00,74.7,53.7,30.24,North,0,0.2,2.5,48,0.00,,,0.00,WUHU216HW,2013-05-26 20:18:00,
2013-05-26 16:23:00,74.7,53.7,30.24,North,0,0.4,2.2,48,0.00,,,0.00,WUHU216HW,2013-05-26 20:23:00,
2013-05-26 16:28:00,74.5,52.9,30.23,NNW,338,0.4,2.2,47,0.00,,,0.00,WUHU216HW,2013-05-26 20:28:00,
2013-05-26 16:33:00,74.5,53.6,30.24,NNW,338,0.0,2.0,48,0.00,,,0.00,WUHU216HW,2013-05-26 20:33:00,
2013-05-26 16:38:00,74.5,53.6,30.23,NW,315,1.6,2.0,48,0.00,,,0.00,WUHU216HW,2013-05-26 20:38:00,
2013-05-26 16:43:00,73.8,53.4,30.23,NE,45,0.2,2.0,49,0.00,,,0.00,WUHU216HW,2013-05-26 20:43:00,
2013-05-26 16:48:00,73.6,52.7,30.22,WSW,248,1.1,1.8,48,0.00,,,0.00,WUHU216HW,2013-05-26 20:48:00,
2013-05-26 16:53:00,73.6,53.2,30.22,NNW,338,0.0,1.8,49,0.00,,,0.00,WUHU216HW,2013-05-26 20:53:00,
2013-05-26 16:58:00,73.4,53.0,30.22,NW,315,1.1,1.6,49,0.00,,,0.00,WUHU216HW,2013-05-26 20:58:00,
2013-05-26 17:03:00,73.4,52.5,30.22,West,270,1.6,1.6,48,0.00,,,0.00,WUHU216HW,2013-05-26 21:03:00,
2013-05-26 17:08:00,73.4,53.0,30.21,NNE,23,0.4,2.5,49,0.00,,,0.00,WUHU216HW,2013-05-26 21:08:00,
2013-05-26 17:13:00,73.6,52.7,30.21,West,270,1.1,3.4,48,0.00,,,0.00,WUHU216HW,2013-05-26 21:13:00,
2013-05-26 17:18:00,73.1,52.1,30.21,SW,225,1.3,3.4,48,0.00,,,0.00,WUHU216HW,2013-05-26 21:18:00,
2013-05-26 17:23:00,73.1,52.1,30.21,NNW,338,0.0,1.6,48,0.00,,,0.00,WUHU216HW,2013-05-26 21:23:00,
2013-05-26 17:28:00,72.9,52.6,30.21,North,0,0.4,2.0,49,0.00,,,0.00,WUHU216HW,2013-05-26 21:28:00,
2013-05-26 17:33:00,72.9,52.6,30.21,NNE,23,1.3,2.5,49,0.00,,,0.00,WUHU216HW,2013-05-26 21:33:00,
2013-05-26 17:38:00,72.9,53.2,30.21,SW,225,1.8,2.5,50,0.00,,,0.00,WUHU216HW,2013-05-26 21:38:00,
2013-05-26 17:43:00,72.5,52.2,30.21,SSW,203,1.6,1.8,49,0.00,,,0.00,WUHU216HW,2013-05-26 21:43:00,
2013-05-26 17:48:00,72.4,52.1,30.21,West,270,0.9,1.8,49,0.00,,,0.00,WUHU216HW,2013-05-26 21:48:00,
2013-05-26 17:53:00,72.0,52.8,30.21,WNW,293,0.0,1.6,51,0.00,,,0.00,WUHU216HW,2013-05-26 21:53:00,
2013-05-26 17:58:00,71.8,52.7,30.21,NNW,338,0.0,1.3,51,0.00,,,0.00,WUHU216HW,2013-05-26 21:58:00,
2013-05-26 18:03:00,71.8,52.7,30.21,East,90,0.0,1.3,51,0.00,,,0.00,WUHU216HW,2013-05-26 22:03:00,
2013-05-26 18:08:00,71.8,53.2,30.21,North,0,0.0,1.3,52,0.00,,,0.00,WUHU216HW,2013-05-26 22:08:00,
2013-05-26 18:13:00,71.6,53.6,30.21,North,0,0.4,1.3,53,0.00,,,0.00,WUHU216HW,2013-05-26 22:13:00,
2013-05-26 18:18:00,71.6,53.0,30.21,North,0,0.4,1.8,52,0.00,,,0.00,WUHU216HW,2013-05-26 22:18:00,
2013-05-26 18:23:00,71.5,52.8,30.21,WNW,293,0.9,1.8,52,0.00,,,0.00,WUHU216HW,2013-05-26 22:23:00,
2013-05-26 18:28:00,71.3,52.8,30.21,North,0,0.0,1.6,52,0.00,,,0.00,WUHU216HW,2013-05-26 22:28:00,
2013-05-26 18:33:00,71.3,52.2,30.21,WSW,248,0.0,1.6,51,0.00,,,0.00,WUHU216HW,2013-05-26 22:33:00,
2013-05-26 18:38:00,71.3,52.2,30.21,SW,225,0.4,1.1,51,0.00,,,0.00,WUHU216HW,2013-05-26 22:38:00,
2013-05-26 18:43:00,71.1,52.0,30.21,SW,225,0.0,0.7,51,0.00,,,0.00,WUHU216HW,2013-05-26 22:43:00,
2013-05-26 18:48:00,71.1,52.0,30.21,SE,135,0.0,0.4,51,0.00,,,0.00,WUHU216HW,2013-05-26 22:48:00,
2013-05-26 18:53:00,71.1,52.6,30.21,WSW,248,0.0,0.2,52,0.00,,,0.00,WUHU216HW,2013-05-26 22:53:00,
2013-05-26 18:58:00,70.9,52.4,30.21,West,270,0.0,0.0,52,0.00,,,0.00,WUHU216HW,2013-05-26 22:58:00,
2013-05-26 19:03:00,70.9,52.9,30.21,West,270,0.0,0.0,53,0.00,,,0.00,WUHU216HW,2013-05-26 23:03:00,
2013-05-26 19:09:00,70.7,52.8,30.21,West,270,0.0,0.9,53,0.00,,,0.00,WUHU216HW,2013-05-26 23:09:00,
2013-05-26 19:14:00,70.6,52.6,30.21,West,270,0.0,0.9,53,0.00,,,0.00,WUHU216HW,2013-05-26 23:14:00,
2013-05-26 19:19:00,70.6,52.6,30.20,ESE,113,0.4,0.7,53,0.00,,,0.00,WUHU216HW,2013-05-26 23:19:00,
2013-05-26 19:24:00,70.6,52.6,30.20,WNW,293,0.0,0.7,53,0.00,,,0.00,WUHU216HW,2013-05-26 23:24:00,
2013-05-26 19:29:00,70.6,52.6,30.21,WNW,293,0.0,0.4,53,0.00,,,0.00,WUHU216HW,2013-05-26 23:29:00,
2013-05-26 19:34:00,70.6,52.6,30.21,West,270,0.0,0.4,53,0.00,,,0.00,WUHU216HW,2013-05-26 23:34:00,
2013-05-26 19:39:00,70.2,52.7,30.21,West,270,0.0,0.4,54,0.00,,,0.00,WUHU216HW,2013-05-26 23:39:00,
2013-05-26 19:44:00,70.2,52.7,30.21,West,270,0.0,0.0,54,0.00,,,0.00,WUHU216HW,2013-05-26 23:44:00,
2013-05-26 19:49:00,70.2,52.7,30.20,West,270,0.0,0.0,54,0.00,,,0.00,WUHU216HW,2013-05-26 23:49:00,
2013-05-26 19:54:00,70.2,52.7,30.21,West,270,0.0,0.0,54,0.00,,,0.00,WUHU216HW,2013-05-26 23:54:00,
2013-05-26 19:59:00,70.0,52.6,30.20,West,270,0.0,0.0,54,0.00,,,0.00,WUHU216HW,2013-05-26 23:59:00,
2013-05-26 20:04:00,70.0,52.1,30.20,West,270,0.0,0.0,53,0.00,,,0.00,WUHU216HW,2013-05-27 00:04:00,
2013-05-26 20:09:00,70.0,52.6,30.20,West,270,0.0,0.0,54,0.00,,,0.00,WUHU216HW,2013-05-27 00:09:00,
2013-05-26 20:14:00,69.8,52.4,30.20,West,270,0.0,0.0,54,0.00,,,0.00,WUHU216HW,2013-05-27 00:14:00,
2013-05-26 20:19:00,69.7,52.3,30.21,West,270,0.0,0.0,54,0.00,,,0.00,WUHU216HW,2013-05-27 00:19:00,
2013-05-26 20:24:00,69.5,52.1,30.20,West,270,0.0,0.0,54,0.00,,,0.00,WUHU216HW,2013-05-27 00:24:00,
2013-05-26 20:30:00,69.5,52.1,30.21,West,270,0.0,0.0,54,0.00,,,0.00,WUHU216HW,2013-05-27 00:30:00,
2013-05-26 20:35:00,69.3,51.9,30.21,West,270,0.0,0.0,54,0.00,,,0.00,WUHU216HW,2013-05-27 00:35:00,
2013-05-26 20:41:00,69.1,51.8,30.21,West,270,0.0,0.0,54,0.00,,,0.00,WUHU216HW,2013-05-27 00:41:00,
2013-05-26 20:46:00,68.9,52.0,30.21,West,270,0.0,0.0,55,0.00,,,0.00,WUHU216HW,2013-05-27 00:46:00,
2013-05-26 20:51:00,68.8,51.9,30.21,West,270,0.0,0.0,55,0.00,,,0.00,WUHU216HW,2013-05-27 00:51:00,
2013-05-26 20:56:00,68.6,51.8,30.21,West,270,0.0,0.0,55,0.00,,,0.00,WUHU216HW,2013-05-27 00:56:00,
2013-05-26 21:02:00,68.4,52.0,30.21,West,270,0.0,0.0,56,0.00,,,0.00,WUHU216HW,2013-05-27 01:02:00,
2013-05-26 21:07:00,68.2,51.8,30.21,ESE,113,0.0,0.0,56,0.00,,,0.00,WUHU216HW,2013-05-27 01:07:00,
2013-05-26 21:12:00,68.0,51.7,30.21,ESE,113,0.0,0.0,56,0.00,,,0.00,WUHU216HW,2013-05-27 01:12:00,
2013-05-26 21:18:00,68.0,51.7,30.21,ESE,113,0.0,0.0,56,0.00,,,0.00,WUHU216HW,2013-05-27 01:18:00,
2013-05-26 21:23:00,68.0,51.7,30.20,ESE,113,0.0,0.0,56,0.00,,,0.00,WUHU216HW,2013-05-27 01:23:00,
2013-05-26 21:28:00,67.9,52.0,30.20,ESE,113,0.0,0.0,57,0.00,,,0.00,WUHU216HW,2013-05-27 01:28:00,
2013-05-26 21:33:00,67.7,51.8,30.20,SE,135,0.0,0.0,57,0.00,,,0.00,WUHU216HW,2013-05-27 01:33:00,
2013-05-26 21:38:00,67.5,51.7,30.20,SE,135,0.0,0.0,57,0.00,,,0.00,WUHU216HW,2013-05-27 01:38:00,
2013-05-26 21:44:00,67.3,52.0,30.20,SE,135,0.0,0.0,58,0.00,,,0.00,WUHU216HW,2013-05-27 01:44:00,
2013-05-26 21:49:00,67.1,51.8,30.21,SE,135,0.0,0.0,58,0.00,,,0.00,WUHU216HW,2013-05-27 01:49:00,
2013-05-26 21:56:00,67.1,51.8,30.21,SSE,158,0.0,0.0,58,0.00,,,0.00,WUHU216HW,2013-05-27 01:56:00,
2013-05-26 22:01:00,67.0,51.7,30.21,SSE,158,0.0,0.0,58,0.00,,,0.00,WUHU216HW,2013-05-27 02:01:00,
2013-05-26 22:06:00,66.8,51.6,30.21,SSE,158,0.0,0.0,58,0.00,,,0.00,WUHU216HW,2013-05-27 02:06:00,
2013-05-26 22:11:00,66.6,51.8,30.21,ESE,113,0.0,0.0,59,0.00,,,0.00,WUHU216HW,2013-05-27 02:11:00,
2013-05-26 22:16:00,66.6,51.8,30.21,ESE,113,0.0,0.0,59,0.00,,,0.00,WUHU216HW,2013-05-27 02:16:00,
2013-05-26 22:21:00,66.4,51.7,30.21,SE,135,0.0,0.0,59,0.00,,,0.00,WUHU216HW,2013-05-27 02:21:00,
2013-05-26 22:26:00,66.2,51.6,30.21,SE,135,0.0,0.0,59,0.00,,,0.00,WUHU216HW,2013-05-27 02:26:00,
2013-05-26 22:31:00,66.2,51.6,30.21,SE,135,0.0,0.0,59,0.00,,,0.00,WUHU216HW,2013-05-27 02:31:00,
2013-05-26 22:36:00,66.2,51.6,30.21,SE,135,0.0,0.0,59,0.00,,,0.00,WUHU216HW,2013-05-27 02:36:00,
2013-05-26 22:41:00,66.2,52.0,30.21,SE,135,0.0,0.0,60,0.00,,,0.00,WUHU216HW,2013-05-27 02:41:00,
2013-05-26 22:46:00,66.1,51.8,30.21,SE,135,0.0,0.0,60,0.00,,,0.00,WUHU216HW,2013-05-27 02:46:00,
2013-05-26 22:51:00,65.9,51.7,30.21,SE,135,0.0,0.0,60,0.00,,,0.00,WUHU216HW,2013-05-27 02:51:00,
2013-05-26 22:56:00,65.9,51.7,30.21,SE,135,0.0,0.0,60,0.00,,,0.00,WUHU216HW,2013-05-27 02:56:00,
2013-05-26 23:01:00,65.7,51.5,30.22,SE,135,0.0,0.0,60,0.00,,,0.00,WUHU216HW,2013-05-27 03:01:00,
2013-05-26 23:06:00,65.7,51.5,30.22,SE,135,0.0,0.0,60,0.00,,,0.00,WUHU216HW,2013-05-27 03:06:00,
2013-05-26 23:11:00,65.7,51.5,30.22,SE,135,0.0,0.0,60,0.00,,,0.00,WUHU216HW,2013-05-27 03:11:00,
2013-05-26 23:16:00,65.5,51.3,30.22,SE,135,0.0,0.0,60,0.00,,,0.00,WUHU216HW,2013-05-27 03:16:00,
2013-05-26 23:21:00,65.5,51.8,30.22,SE,135,0.0,0.0,61,0.00,,,0.00,WUHU216HW,2013-05-27 03:21:00,
2013-05-26 23:26:00,65.3,51.6,30.22,SE,135,0.0,0.4,61,0.00,,,0.00,WUHU216HW,2013-05-27 03:26:00,
2013-05-26 23:31:00,65.3,51.6,30.22,SE,135,0.0,0.4,61,0.00,,,0.00,WUHU216HW,2013-05-27 03:31:00,
2013-05-26 23:36:00,65.2,51.4,30.21,SE,135,0.0,0.0,61,0.00,,,0.00,WUHU216HW,2013-05-27 03:36:00,
2013-05-26 23:41:00,65.2,51.4,30.21,SE,135,0.0,0.0,61,0.00,,,0.00,WUHU216HW,2013-05-27 03:41:00,
2013-05-26 23:46:00,65.2,51.4,30.21,SE,135,0.0,0.0,61,0.00,,,0.00,WUHU216HW,2013-05-27 03:46:00,
2013-05-26 23:51:00,65.2,51.4,30.21,SE,135,0.0,0.0,61,0.00,,,0.00,WUHU216HW,2013-05-27 03:51:00,
2013-05-26 23:56:00,65.2,51.4,30.21,SE,135,0.0,0.0,61,0.00,,,0.00,WUHU216HW,2013-05-27 03:56:00,